Wind_Speed
11 10 8 6 6 5 4 5 4 4 2 4 7 8 9 11 12 12 12 12 12 12 13 13 13 13 12 12 12 11 10 9 9 8 9 8 7 6 6 5 6 6 6 6
13 12 9 8 8 7 6 6 7 7 4 3 6 8 8 9 10 11 12 11 11 11 11 12 13 13 12 12 12 12 11 9 9 8 8 8 8 7 7 7 6 6 6 6
16 11 9 10 10 10 9 8 8 8 8 6 6 8 8 8 9 9 10 9 9 10 10 11 11 12 12 12 12 11 11 10 9 9 9 9 8 8 8 8 8 7 7 7
17 14 14 14 14 12 11 9 9 9 9 9 7 11 10 11 8 8 8 9 8 8 9 10 10 11 11 11 11 11 11 11 10 10 9 9 9 9 9 8 8 8 8 8
18 17 18 17 15 13 12 11 12 10 10 10 8 11 11 12 10 8 7 8 8 8 8 9 10 10 11 11 11 11 11 10 10 10 10 9 9 9 10 10 9 9 9 9
19 19 19 19 16 15 14 13 12 11 11 12 10 11 13 15 13 11 7 8 8 9 9 9 10 10 11 11 10 10 11 11 10 10 10 10 10 10 10 10 10 10 9 9
21 22 21 19 18 18 17 14 11 12 14 14 11 11 14 14 14 11 7 7 9 10 9 9 10 11 11 11 10 10 11 11 11 11 10 11 11 11 11 10 10 11 11 11
19 20 20 21 20 20 17 16 15 14 15 16 13 15 13 12 13 11 8 9 9 10 10 10 10 11 11 11 10 10 11 11 12 11 11 11 12 12 11 11 11 12 12 13
20 19 19 20 21 21 19 18 16 16 16 17 17 15 12 12 11 11 10 10 9 10 11 11 11 11 11 11 10 9 11 11 12 11 12 12 13 12 12 12 12 13 13 14
23 20 20 20 22 22 22 19 17 17 18 18 17 18 16 14 12 11 11 11 10 12 12 12 11 12 12 12 12 11 11 11 12 12 12 13 13 13 13 13 13 13 14 14
26 24 21 21 21 19 19 20 20 19 18 17 18 19 18 14 11 13 13 13 12 13 13 12 12 13 13 13 13 13 13 13 13 13 13 14 14 13 14 14 14 14 15 15
26 24 24 23 21 20 20 21 20 20 20 19 20 21 17 15 14 14 15 14 13 14 14 14 14 14 14 14 13 13 14 14 14 14 15 15 14 15 15 15 15 15 16 16
27 27 26 22 21 22 22 22 21 21 21 21 21 23 21 20 18 16 15 15 16 14 15 16 15 15 15 15 15 15 15 15 16 15 15 16 16 16 15 15 15 16 16 17
29 29 27 25 22 23 23 22 22 22 22 22 23 24 24 21 19 18 15 17 17 16 15 16 17 16 16 17 17 17 17 17 17 17 17 17 17 16 16 16 17 17 18 18
30 30 28 27 23 21 22 22 22 23 23 24 23 24 25 24 21 20 18 19 19 18 17 18 18 18 18 19 19 18 18 19 19 19 19 19 19 18 18 18 18 19 19 20
31 30 28 27 25 23 23 23 23 23 23 24 24 24 25 27 24 24 22 21 19 19 19 19 19 20 20 20 20 20 20 20 21 20 21 21 21 20 19 19 20 21 21 22
31 31 30 27 26 25 26 25 24 23 24 25 26 27 26 28 27 26 26 23 21 21 21 21 21 22 22 22 22 22 22 22 22 22 22 22 22 22 22 21 22 22 23 23
32 32 31 28 26 28 27 25 25 26 26 26 28 29 28 30 29 28 29 26 23 24 23 23 23 23 23 23 24 24 24 24 24 24 24 24 24 24 23 23 23 23 24 25
31 32 31 30 28 28 27 27 25 27 28 28 29 30 30 30 28 28 29 27 26 24 24 24 25 25 25 25 26 25 25 25 25 25 25 25 24 25 25 25 25 25 25 25
31 32 31 31 29 29 29 27 26 27 30 30 30 31 31 30 31 31 29 28 27 26 26 26 26 26 26 27 27 26 26 26 26 26 26 26 26 26 25 25 25 25 26 25
32 31 32 32 31 31 30 28 28 29 31 30 31 31 31 32 33 34 31 29 29 29 29 28 27 27 27 28 28 27 27 27 27 28 27 27 26 26 26 27 27 27 27 27
31 30 31 32 32 34 32 30 31 31 31 31 30 31 32 33 34 34 33 30 30 30 30 30 29 29 29 29 29 28 28 28 29 29 29 28 28 28 28 28 28 29 29 29
30 31 31 32 35 36 33 32 33 33 32 31 32 33 34 32 34 34 33 33 32 32 32 31 31 31 30 30 30 30 30 30 31 31 31 30 30 30 30 30 30 30 29 29
30 31 32 34 35 36 34 34 33 34 34 33 34 34 34 33 34 34 33 34 34 34 33 33 33 33 32 32 31 32 32 32 32 33 34 33 32 31 31 30 30 30 30 30
30 31 34 36 36 37 35 34 35 36 35 35 35 35 34 34 34 34 32 32 34 35 35 35 35 35 34 33 33 33 33 33 33 34 35 34 32 32 31 32 32 32 32 31
31 33 35 36 36 36 35 35 36 35 35 35 35 36 35 35 35 35 35 33 33 34 35 36 36 36 36 35 35 34 34 33 34 34 34 34 34 34 34 33 33 33 33 32
Wind_Direction
211 206 195 197 212 236 248 269 285 292 314 342 340 343 348 355 6 10 15 21 25 28 30 31 32 34 36 36 35 33 31 28 27 27 26 26 24 20 15 11 9 7 3 356
214 212 206 206 216 228 241 263 277 280 287 296 322 325 330 336 348 355 3 10 17 23 27 27 27 32 32 30 29 28 25 23 23 22 18 16 16 15 14 11 6 360 355 352
223 212 219 220 219 229 234 242 264 278 286 298 309 307 310 318 330 342 353 359 7 15 19 20 18 20 22 23 23 21 19 18 19 14 10 6 5 7 7 6 1 356 353 351
223 216 219 223 222 223 237 240 252 264 275 285 292 291 287 304 303 315 334 344 355 1 8 12 13 13 12 12 13 14 12 10 8 7 5 4 2 359 357 357 355 354 352 348
224 220 222 225 225 226 230 237 245 248 257 263 267 281 284 288 289 297 319 333 341 346 350 357 1 1 2 2 2 2 2 1 359 358 358 358 357 355 353 351 347 346 344 342
222 227 227 228 227 227 228 238 243 248 255 263 261 267 276 291 299 302 317 325 327 330 336 342 345 349 350 350 350 350 351 351 351 350 349 348 349 348 347 346 344 342 340 340
223 225 227 228 228 229 232 239 244 251 255 256 254 259 270 291 299 299 313 316 315 318 324 327 330 335 338 338 340 341 342 342 341 342 340 342 343 343 341 340 340 338 337 336
233 233 231 230 228 229 235 230 240 250 260 264 253 245 256 280 286 290 292 295 300 308 312 313 315 321 327 329 329 331 333 335 334 335 334 335 335 334 333 333 333 333 332 331
224 239 236 234 231 225 226 229 236 250 257 265 265 264 262 268 278 280 282 284 291 301 305 306 307 314 319 316 318 324 331 330 330 330 328 329 329 328 327 327 326 328 330 329
213 222 231 237 236 230 225 225 233 242 256 260 264 268 265 264 269 276 280 283 285 294 299 301 304 310 312 310 315 321 327 327 329 327 324 323 324 323 322 322 322 324 325 326
217 219 225 231 237 234 232 228 229 234 242 258 266 264 270 270 263 273 277 281 283 291 295 297 298 302 306 309 311 316 317 317 319 318 318 318 318 319 320 318 319 321 322 323
221 220 225 227 231 234 230 230 228 233 237 243 261 269 273 277 278 277 279 281 284 285 287 290 294 299 301 302 306 308 309 312 311 312 313 315 316 316 315 315 316 317 317 318
221 220 223 224 225 230 230 230 229 231 239 243 253 262 268 274 274 270 272 276 275 277 281 285 288 292 294 296 300 302 304 305 305 306 308 310 310 310 310 313 316 318 318 317
223 223 220 222 223 231 230 229 231 231 237 245 248 257 266 270 271 272 275 275 272 277 277 279 284 288 290 292 294 297 300 300 300 300 302 304 306 306 305 308 311 316 318 317
224 225 223 222 221 229 235 235 235 233 233 241 249 259 266 270 267 268 273 274 273 274 274 277 279 285 288 289 291 293 296 296 297 297 298 298 300 301 302 305 309 311 312 313
226 225 225 227 223 223 229 234 240 239 236 239 244 253 259 265 267 269 272 272 272 273 273 275 279 282 284 285 286 289 291 292 294 296 296 298 298 301 301 302 304 307 308 309
228 227 228 230 228 230 234 232 239 241 239 240 245 249 257 265 266 268 269 268 270 272 272 273 277 279 280 281 284 287 290 292 293 294 296 300 300 299 297 297 299 303 305 306
229 228 228 230 232 234 235 234 238 241 241 240 245 248 252 259 262 264 264 263 264 267 270 272 275 277 278 279 282 285 288 289 290 292 294 298 299 300 297 297 297 297 300 302
230 230 229 229 233 236 238 236 235 240 244 244 244 249 253 255 257 261 263 264 263 267 268 271 273 276 278 279 281 282 285 286 288 291 293 295 297 298 297 295 295 295 297 299
230 232 229 228 231 237 238 238 242 246 247 245 246 248 253 255 255 258 261 262 263 267 268 270 272 275 278 280 280 281 283 283 285 289 291 293 294 295 293 293 294 295 295 296
231 233 231 229 232 239 241 240 245 244 246 247 247 249 253 255 256 258 259 262 264 266 268 269 271 274 276 278 279 280 282 282 284 287 289 290 292 295 294 294 294 293 293 294
230 232 234 231 233 238 242 243 245 247 247 249 251 253 255 257 257 258 259 260 263 265 267 268 270 273 274 275 277 278 279 281 283 286 287 288 289 290 292 292 292 292 292 293
228 231 233 233 234 237 238 240 245 249 252 252 254 257 258 259 259 261 261 262 263 265 266 266 268 270 272 273 274 276 278 280 282 284 284 286 287 288 290 292 292 292 292 292
227 228 231 234 235 238 242 242 245 249 252 254 256 258 261 261 262 263 263 263 263 264 265 265 266 268 269 272 273 275 278 281 282 282 284 285 286 287 288 289 290 291 293 292
230 232 233 236 238 241 243 245 246 248 251 255 257 259 261 262 263 265 265 262 261 262 263 265 265 267 269 270 273 275 278 280 282 283 284 285 285 286 288 290 291 291 294 296
233 233 234 237 240 243 244 246 249 251 253 256 258 259 260 261 263 265 266 265 263 262 263 264 265 267 269 269 271 275 277 279 281 283 284 285 286 288 289 292 294 295 297 298
Height
5905 5908 5909 5913 5916 5917 5919 5918 5917 5917 5917 5917 5915 5914 5912 5910 5909 5908 5906 5905 5904 5902 5901 5899 5898 5896 5895 5894 5893 5892 5891 5891 5890 5889 5889 5888 5887 5886 5886 5885 5884 5884 5883 5882
5904 5906 5910 5912 5915 5917 5918 5919 5919 5917 5916 5917 5916 5914 5912 5911 5911 5909 5908 5907 5905 5904 5902 5901 5900 5898 5897 5896 5895 5894 5893 5892 5891 5890 5890 5889 5888 5887 5886 5885 5884 5884 5883 5882
5901 5907 5909 5911 5914 5916 5917 5919 5919 5917 5916 5915 5916 5915 5912 5911 5911 5910 5909 5908 5906 5905 5904 5903 5901 5900 5899 5897 5896 5895 5894 5893 5892 5891 5890 5889 5889 5888 5887 5886 5885 5884 5883 5882
5900 5904 5907 5909 5911 5914 5916 5917 5918 5917 5916 5916 5916 5914 5911 5910 5909 5909 5909 5908 5905 5905 5905 5904 5902 5901 5900 5899 5898 5896 5895 5894 5893 5892 5891 5890 5889 5888 5887 5886 5885 5884 5883 5882
5897 5901 5903 5906 5909 5911 5913 5915 5915 5915 5915 5914 5914 5914 5910 5907 5907 5906 5907 5907 5906 5905 5905 5904 5903 5902 5901 5899 5898 5897 5896 5895 5893 5892 5891 5890 5889 5888 5886 5885 5885 5884 5883 5882
5894 5898 5900 5903 5906 5908 5910 5911 5911 5912 5913 5913 5912 5913 5910 5907 5905 5904 5904 5906 5906 5905 5904 5904 5903 5902 5901 5900 5898 5897 5896 5894 5893 5892 5891 5889 5888 5887 5886 5885 5884 5883 5882 5881
5890 5893 5896 5899 5902 5905 5906 5908 5910 5910 5910 5910 5911 5911 5909 5907 5906 5904 5904 5905 5905 5904 5904 5903 5902 5901 5900 5899 5898 5897 5895 5894 5893 5891 5890 5889 5888 5887 5886 5884 5883 5882 5881 5880
5887 5890 5893 5895 5898 5901 5903 5905 5908 5908 5909 5907 5907 5906 5906 5906 5905 5904 5903 5904 5904 5903 5903 5902 5901 5901 5899 5898 5897 5895 5894 5893 5892 5891 5890 5888 5887 5886 5884 5883 5882 5881 5879 5878
5885 5888 5890 5891 5893 5897 5899 5901 5905 5906 5906 5905 5904 5901 5902 5902 5903 5903 5902 5902 5902 5902 5901 5901 5900 5899 5898 5896 5895 5893 5893 5892 5891 5890 5889 5887 5886 5884 5883 5882 5880 5879 5878 5876
5879 5883 5886 5888 5890 5892 5895 5898 5901 5902 5902 5902 5902 5900 5899 5899 5900 5901 5900 5900 5899 5900 5899 5899 5898 5898 5896 5895 5893 5892 5892 5891 5890 5888 5887 5886 5884 5883 5881 5880 5879 5877 5876 5874
5874 5878 5882 5884 5885 5888 5891 5894 5896 5898 5900 5900 5899 5898 5896 5896 5896 5898 5898 5897 5897 5897 5897 5896 5895 5895 5895 5893 5892 5891 5890 5889 5888 5887 5886 5884 5883 5881 5880 5878 5876 5875 5874 5872
5867 5872 5875 5879 5882 5885 5887 5890 5892 5894 5895 5897 5896 5895 5893 5894 5894 5895 5895 5894 5894 5895 5894 5894 5893 5893 5892 5891 5890 5889 5888 5887 5886 5885 5884 5882 5881 5879 5877 5876 5874 5873 5871 5869
5862 5866 5870 5874 5878 5880 5882 5884 5887 5890 5892 5892 5893 5893 5891 5891 5891 5890 5891 5891 5891 5891 5891 5891 5890 5890 5889 5888 5888 5887 5886 5885 5884 5883 5881 5880 5878 5877 5875 5874 5872 5870 5868 5866
5856 5859 5864 5868 5871 5874 5876 5879 5882 5885 5887 5888 5888 5887 5886 5886 5885 5885 5885 5888 5888 5888 5888 5887 5887 5887 5886 5886 5885 5884 5883 5882 5881 5880 5878 5877 5876 5874 5872 5871 5869 5867 5865 5863
5849 5852 5856 5860 5864 5868 5871 5873 5876 5878 5880 5882 5883 5883 5882 5881 5881 5881 5881 5883 5883 5884 5884 5883 5882 5882 5882 5882 5881 5881 5880 5878 5877 5876 5875 5874 5872 5871 5869 5867 5865 5864 5862 5860
5841 5846 5850 5854 5858 5862 5864 5868 5870 5873 5874 5876 5877 5878 5876 5876 5876 5876 5875 5877 5878 5879 5879 5879 5879 5879 5878 5878 5877 5876 5875 5874 5873 5872 5871 5869 5868 5866 5864 5863 5861 5859 5857 5856
5835 5839 5844 5848 5852 5855 5858 5862 5864 5865 5868 5870 5871 5873 5871 5870 5870 5871 5872 5872 5873 5874 5874 5875 5874 5874 5873 5873 5872 5872 5871 5870 5869 5867 5866 5865 5863 5862 5860 5858 5856 5855 5853 5851
5828 5832 5837 5842 5846 5848 5853 5855 5858 5859 5860 5863 5863 5864 5865 5864 5864 5865 5866 5866 5866 5868 5869 5869 5869 5869 5868 5868 5867 5866 5865 5864 5863 5862 5860 5859 5858 5856 5854 5852 5851 5849 5847 5846
5822 5825 5830 5835 5838 5842 5845 5847 5850 5851 5853 5854 5855 5856 5857 5857 5858 5858 5858 5859 5860 5862 5863 5863 5863 5863 5863 5862 5861 5860 5859 5858 5857 5856 5855 5853 5852 5850 5848 5847 5845 5843 5841 5840
5815 5819 5824 5828 5831 5835 5837 5839 5841 5844 5844 5846 5846 5848 5848 5849 5850 5851 5852 5852 5854 5855 5856 5857 5857 5857 5856 5856 5855 5854 5853 5852 5851 5850 5848 5847 5845 5843 5841 5840 5838 5837 5835 5833
5808 5811 5815 5820 5824 5826 5828 5831 5834 5836 5836 5838 5838 5839 5840 5842 5843 5843 5842 5844 5847 5848 5849 5849 5850 5850 5850 5849 5848 5847 5846 5845 5844 5843 5841 5840 5838 5837 5835 5833 5832 5830 5828 5826
5800 5804 5808 5812 5816 5819 5819 5822 5824 5825 5827 5829 5830 5831 5832 5833 5833 5834 5834 5837 5839 5840 5841 5841 5842 5842 5842 5842 5841 5840 5839 5838 5837 5835 5834 5832 5831 5829 5827 5826 5824 5822 5820 5818
5793 5798 5801 5805 5808 5808 5810 5813 5815 5817 5820 5822 5823 5824 5824 5824 5825 5826 5827 5829 5830 5831 5832 5833 5833 5833 5833 5833 5833 5832 5831 5830 5829 5827 5826 5824 5823 5821 5819 5817 5815 5813 5812 5810
5784 5788 5792 5795 5797 5800 5802 5805 5808 5809 5811 5813 5814 5815 5816 5816 5817 5818 5819 5820 5821 5822 5823 5824 5824 5824 5825 5824 5824 5824 5823 5822 5820 5819 5818 5816 5814 5812 5810 5808 5806 5805 5803 5802
5777 5781 5783 5786 5790 5792 5795 5797 5800 5801 5803 5804 5806 5807 5807 5808 5809 5809 5809 5810 5811 5812 5814 5814 5815 5815 5815 5815 5815 5815 5814 5813 5812 5810 5809 5807 5806 5804 5802 5800 5798 5796 5795 5793
5770 5772 5775 5778 5782 5784 5787 5789 5791 5792 5794 5795 5797 5798 5799 5799 5799 5800 5801 5802 5803 5803 5804 5804 5805 5805 5805 5806 5806 5805 5805 5804 5803 5802 5800 5799 5797 5796 5794 5792 5790 5788 5786 5784